This is the latest recevied weather packets stored in our database for station/object AI5BL. If no packets are shown the sender has not sent any weather packets the latest 10 day(s).
| Time | Temp. | Humidity | Pressure | Rain* | Wind** | Luminosity | Snow |
|---|---|---|---|---|---|---|---|
| 1788355858 | 28.89° C | 83% | 1021 hPa | 0 mm | - | 194 W/m² | - |
| 1788355553 | 28.33° C | 85% | 1021 hPa | 0 mm | - | 178 W/m² | - |
| 1788355250 | 28.33° C | 85% | 1021 hPa | 0 mm | - | 165 W/m² | - |
| 1788354946 | 27.78° C | 87% | 1020.9 hPa | 0 mm | - | 131 W/m² | - |
| 1788354645 | 27.22° C | 88% | 1020.8 hPa | 0 mm | - | 112 W/m² | - |
| 1788354341 | 26.67° C | 90% | 1020.9 hPa | 0 mm | - | 96 W/m² | - |
| 1788354036 | 25.56° C | 93% | 1020.8 hPa | 0 mm | - | 82 W/m² | - |
| 1788353732 | 25° C | 97% | 1021 hPa | 0 mm | - | 73 W/m² | - |
| 1788353428 | 23.89° C | 98% | 1021 hPa | 0 mm | - | 40 W/m² | - |
| 1788353124 | 23.89° C | 98% | 1020.8 hPa | 0 mm | - | 37 W/m² | - |
| 1788352818 | 23.33° C | 99% | 1020.9 hPa | 0 mm | - | 34 W/m² | - |
| 1788352514 | 23.33° C | 99% | 1020.8 hPa | 0 mm | - | 33 W/m² | - |
| 1788352214 | 23.33° C | 99% | 1020.9 hPa | 0 mm | - | 31 W/m² | - |
| 1788351909 | 23.33° C | 99% | 1020.8 hPa | 0 mm | - | 29 W/m² | - |
| 1788351604 | 22.78° C | 99% | 1020.8 hPa | 0 mm | - | 27 W/m² | - |
| 1788351299 | 22.78° C | 99% | 1020.8 hPa | 0 mm | - | 25 W/m² | - |
| 1788350994 | 22.78° C | 99% | 1020.6 hPa | 0 mm | - | 22 W/m² | - |
| 1788350690 | 22.78° C | 99% | 1020.5 hPa | 0 mm | - | 19 W/m² | - |
| 1788350390 | 22.78° C | 99% | 1020.5 hPa | 0 mm | - | 17 W/m² | - |
| 1788350086 | 22.78° C | 99% | 1020.5 hPa | 0 mm | - | 11 W/m² | - |
| 1788349782 | 22.78° C | 99% | 1020.3 hPa | 0 mm | - | 0 W/m² | - |
| 1788349478 | 22.78° C | 99% | 1020.4 hPa | 0 mm | - | 0 W/m² | - |
| 1788349172 | 22.78° C | 99% | 1020.4 hPa | 0 mm | - | 0 W/m² | - |
| 1788348868 | 22.78° C | 99% | 1020.5 hPa | 0 mm | - | 0 W/m² | - |
| 1788348567 | 22.78° C | 99% | 1020.5 hPa | 0 mm | - | 0 W/m² | - |
* Rain latest hour (hover to see other rain measurements)
** Current wind speed in m/s (hover to see current wind gust speed)